Weather History for Lebanon, NH

Change the Weather History Date:

Saturday, March 2, 2013

  Actual Average Record
Temperature  
Mean Temperature 31 °F -  
Max Temperature 36 °F 36 °F 55 °F (1990)
Min Temperature 26 °F 16 °F -11 °F (1940)
Degree Days  
Heating Degree Days 34    
Moisture  
Dew Point 24 °F    
Average Humidity 73    
Maximum Humidity 86    
Minimum Humidity 56    
Precipitation  
Precipitation 0.01 in - - ()
Sea Level Pressure  
Sea Level Pressure 29.70 in    
Wind  
Wind Speed 6 mph (NNW)    
Max Wind Speed 10 mph    
Max Gust Speed 17 mph    
Visibility 8 miles    
Events Snow    
Averages and records for this station are not official NWS values.
T = Trace of Precipitation, MM = Missing Value Source: NWS Daily Summary

Daily Weather History Graph

Daily Weather History Graph

Search for Another Location

Airport:

Trip Planner

Search our weather history database for the weather conditions in past years. The results will help you decide how hot, cold, wet, or windy it might be!

Date:

Astronomy

Mar. 02, 2013 Rise Set
Actual Time 6:23 AM EST 5:39 PM EST
Civil Twilight 5:54 AM EST 6:08 PM EST
Nautical Twilight 5:21 AM EST 6:41 PM EST
Astronomical Twilight 4:48 AM EST 7:14 PM EST
Moon 11:27 PM EST (3/2) 8:38 AM EST (3/2)
Length of Visible Light 12h 13m
Length of Day
11h 15m
Waning Gibbous, 74% of the Moon is Illuminated
Mar 2
Waning Gibbous
Mar 4
Last Quarter
Mar 11
New
Mar 19
First Quarter
Mar 27
Full

Hourly Weather History & Observations

Time (EST) Temp. Windchill Dew Point Humidity Pressure Visibility Wind Dir Wind Speed Gust Speed Precip Events Conditions
12:53 AM 32.0 °F 28.7 °F 24.1 °F 73% 29.70 in 10.0 mi NNW 3.5 mph - N/A   Overcast
1:53 AM 32.0 °F 25.6 °F 24.1 °F 73% 29.70 in 10.0 mi NNW 6.9 mph - N/A   Overcast
2:53 AM 32.0 °F 26.4 °F 25.0 °F 75% 29.70 in 10.0 mi NW 5.8 mph - N/A   Overcast
3:21 AM 32.0 °F 28.7 °F 24.8 °F 75% 29.67 in 10.0 mi NNW 3.5 mph - N/A   Overcast
3:53 AM 32.0 °F 26.4 °F 24.1 °F 73% 29.70 in 10.0 mi NNW 5.8 mph - N/A   Overcast
4:53 AM 30.9 °F 27.5 °F 24.1 °F 76% 29.70 in 10.0 mi NNE 3.5 mph - N/A   Overcast
5:03 AM 30.2 °F 24.3 °F 24.8 °F 80% 29.67 in 10.0 mi North 5.8 mph - N/A   Overcast
5:53 AM 32.0 °F 25.6 °F 24.1 °F 73% 29.70 in 10.0 mi North 6.9 mph - N/A   Overcast
6:53 AM 30.9 °F 24.3 °F 24.1 °F 76% 29.70 in 10.0 mi NNW 6.9 mph - N/A   Overcast
7:53 AM 32.0 °F 27.5 °F 24.1 °F 73% 29.71 in 10.0 mi NNW 4.6 mph - N/A   Overcast
8:53 AM 34.0 °F 28.0 °F 25.0 °F 70% 29.71 in 10.0 mi NNW 6.9 mph - N/A   Overcast
9:53 AM 34.0 °F 27.2 °F 24.1 °F 67% 29.71 in 10.0 mi NNW 8.1 mph - N/A   Overcast
10:53 AM 34.0 °F 26.0 °F 24.1 °F 67% 29.71 in 10.0 mi NW 10.4 mph - N/A   Overcast
11:53 AM 35.1 °F 29.3 °F 24.1 °F 64% 29.70 in 10.0 mi NNW 6.9 mph - N/A   Overcast
12:53 PM 35.1 °F 27.4 °F 24.1 °F 64% 29.69 in 10.0 mi North 10.4 mph 17.3 mph N/A   Overcast
1:53 PM 36.0 °F 29.0 °F 23.0 °F 59% 29.68 in 10.0 mi NNW 9.2 mph - N/A   Overcast
2:27 PM 35.6 °F 28.0 °F 21.2 °F 56% 29.65 in 10.0 mi North 10.4 mph - N/A   Overcast
2:53 PM 36.0 °F 29.0 °F 21.9 °F 57% 29.67 in 10.0 mi NNW 9.2 mph - N/A   Overcast
3:53 PM 35.1 °F 27.9 °F 24.1 °F 64% 29.68 in 10.0 mi North 9.2 mph 17.3 mph N/A   Overcast
4:53 PM 33.1 °F 25.5 °F 26.1 °F 75% 29.69 in 7.0 mi NW 9.2 mph - N/A   Overcast
5:17 PM 32.0 °F 24.8 °F 26.6 °F 80% 29.68 in 3.0 mi NW 8.1 mph - 0.00 in Snow Light Snow
5:25 PM 32.0 °F 24.8 °F 26.6 °F 80% 29.68 in 3.0 mi NW 8.1 mph - 0.00 in Snow Light Snow
5:53 PM 32.0 °F 25.6 °F 25.0 °F 75% 29.71 in 7.0 mi NW 6.9 mph - 0.00 in   Overcast
6:35 PM 30.2 °F 26.7 °F 24.8 °F 80% 29.70 in 10.0 mi NNW 3.5 mph - N/A   Overcast
6:53 PM 30.9 °F 22.2 °F 21.0 °F 67% 29.72 in 10.0 mi North 10.4 mph - N/A   Overcast
8:53 PM 30.0 °F 22.4 °F 19.9 °F 66% 29.73 in 10.0 mi North 8.1 mph - N/A   Overcast
9:04 PM 30.2 °F 24.3 °F 19.4 °F 64% 29.70 in 10.0 mi North 5.8 mph - N/A   Overcast
9:53 PM 28.9 °F 23.9 °F 21.0 °F 72% 29.73 in 2.5 mi Variable 4.6 mph - 0.00 in Snow Light Snow
10:03 PM 28.4 °F 24.6 °F 21.2 °F 74% 29.70 in 1.8 mi North 3.5 mph - 0.00 in Snow Light Snow
10:41 PM 28.4 °F - 24.8 °F 86% 29.69 in 2.5 mi Calm Calm - 0.01 in Snow Light Snow
10:48 PM 28.4 °F - 23.0 °F 80% 29.69 in 4.0 mi Calm Calm - 0.01 in Snow Light Snow
10:53 PM 28.0 °F - 24.1 °F 85% 29.72 in 6.0 mi Calm Calm - 0.01 in Snow Light Snow
11:24 PM 26.6 °F 22.6 °F 21.2 °F 80% 29.68 in 2.5 mi North 3.5 mph - 0.00 in Snow Light Snow
11:40 PM 26.6 °F - 23.0 °F 86% 29.68 in 4.0 mi Calm Calm - 0.00 in Snow Light Snow
11:53 PM 27.0 °F 23.0 °F 21.9 °F 81% 29.71 in 4.0 mi NNW 3.5 mph - 0.00 in Snow Light Snow